Preview of NWS' New Version of Forecast
This preview is not operational and should not be used for support decisions.

Regional Weather Roundup (RWR)

Issued by National Weather Service (NWS)

                            
000
ASUS43 KLOT 172008
RWRIL 

ILLINOIS REGIONAL WEATHER ROUNDUP
NATIONAL WEATHER SERVICE CHICAGO/ROMEOVILLE IL
200 PM CST MON DEC 17 2018

NOTE: "FAIR" INDICATES FEW OR NO CLOUDS BELOW 12,000 FEET WITH NO
SIGNIFICANT WEATHER AND/OR OBSTRUCTIONS TO VISIBILITY.

* THESE STATIONS ARE NOT UNDER NWS QUALITY CONTROL. THEY ALSO MAY NOT
  REPORT WEATHER SUCH AS PRECIPITATION OR FOG.

ILZ001-002-007-009-015-016-024-172100-
NORTHWEST ILLINOIS
  
CITY           SKY/WX    TMP DP  RH WIND       PRES   REMARKS
MOLINE         FAIR      45  25  45 W6        30.22S                  
STERLING*      FAIR      42  25  50 NW7       30.22S                  
SAVANNA*       FAIR      43  21  42 W5        30.23R                  
$$

ILZ003-004-008-010-011-017-018-172100-
NORTH CENTRAL ILLINOIS
  
CITY           SKY/WX    TMP DP  RH WIND       PRES   REMARKS
ROCKFORD       FAIR      41  20  43 NW8       30.22R                  
FREEPORT*      FAIR      40  21  47 NW7       30.22S                  
ROCHELLE*      FAIR      40  26  56 W9        30.21R                  
DE KALB*       FAIR      39  24  53 NW8       30.20R WCI  34          
PERU*          FAIR      42  28  57 W6        30.22R                  
$$

ILZ005-006-012>014-019>023-172100-
NORTHEAST ILLINOIS
  
CITY           SKY/WX    TMP DP  RH WIND       PRES   REMARKS
CHICAGO-OHARE  FAIR      42  20  41 W5        30.17S                  
CHICAGO-MIDWAY FAIR      40  20  44 CALM      30.18S                  
AURORA         FAIR      40  26  57 NW7       30.18S                  
LANSING*       FAIR      39  24  55 N3        30.19S                  
JOLIET*        FAIR      42  24  48 NW3       30.18F                  
WAUKEGAN       FAIR      40  20  44 VRB3      30.17S                  
DUPAGE AIRPORT FAIR      41  21  44 NW6       30.17S                  
KANKAKEE*      FAIR      40  25  54 NW7       30.20R                  
WHEELING       FAIR      43  20  39 NW6       30.18F                  
MORRIS*        FAIR      40  26  58 NW3       30.19S                  
ROMEOVILLE*    FAIR      41  24  51 N5        30.18S                  
NORTHERLY ISL    N/A     37  25  62 NE5         N/A  WCI  33          
$$

LMZ740>746-172100-
SOUTHERN LAKE MICHIGAN
  
STATION/POSITION SKY/WX   TEMP    WIND        PRES    VSBY  WAVE
                          AIR SEA DIR/SP/G                  HT/PER
                          (F)     (DEG/KT/KT) (MB)    (MI)  (FT/S)
HARRISON CRIB              36      40/  7/  8   N/A
NORTHERLY ISL              37      40/  5/  8   N/A
CALUMET HARBOR             36      10/  4/  8 1021.6F
BURNS HARBOR               36     350/  5/  7 1022.7R
MICHIGAN CITY              36     340/ 12/ 13   N/A
$$

ILZ025>027-034>036-040-047-049-050-058-095>099-172100-
WEST-CENTRAL ILLINOIS
  
CITY           SKY/WX    TMP DP  RH WIND       PRES   REMARKS
QUINCY         SUNNY     48  25  40 NW7       30.24F                  
GALESBURG*     FAIR      43  29  58 CALM      30.23S                  
MACOMB*        SUNNY     44  28  53 NW8       30.25F                  
JACKSONVILLE*  SUNNY     47  24  40 NW7       30.22F                  
PITTSFIELD*    SUNNY     52  19  27 W7        30.24F                  
$$

ILZ028>032-037-038-041>044-048-051>054-059>061-172100-
CENTRAL ILLINOIS
  
CITY           SKY/WX    TMP DP  RH WIND       PRES   REMARKS
PONTIAC        FAIR      40  30  69 NW7       30.21S                  
BLOOMINGTON    FAIR      42  27  55 NW10      30.20F                  
DECATUR        FAIR     N/A N/A N/A NW8       30.20F                  
PEORIA         FAIR      44  29  55 W6        30.22S                  
LACON*         FAIR      41  28  60 NW5       30.21S                  
LINCOLN*       FAIR      45  30  56 NW3       30.21F                  
SPRINGFIELD    FAIR      48  24  39 NW10      30.22F                  
TAYLORVILLE    FAIR      47  28  46 N8        30.21F                  
$$

ILZ033-039-045-046-055>057-062-063-172100-
EAST-CENTRAL ILLINOIS
  
CITY           SKY/WX    TMP DP  RH WIND       PRES   REMARKS
CHAMPAIGN      FAIR      42  30  62 NW10      30.18F                  
DANVILLE*      FAIR      40  30  68 NW9       30.16S                  
RANTOUL*       FAIR      42  32  67 NW8       30.19S                  
MATTOON        FAIR      45  31  58 NW12      30.18F                  
PARIS*         FAIR      42  32  66 NW10      30.19S                  
$$

ILZ079-100>102-172100-
SOUTHWEST ILLINOIS
  
CITY           SKY/WX    TMP DP  RH WIND       PRES   REMARKS
ALTON          SUNNY     50  27  40 NW8       30.23F                  
BELLEVILLE     SUNNY     51  27  38 NW8       30.21F                  
CAHOKIA*       SUNNY     51  26  37 NW7       30.23F                  
SPARTA*        SUNNY     49  32  51 NW6       30.24S                  
$$

ILZ064>066-069>071-074>076-080>082-084>086-088>090-092>094-172100-
SOUTH-CENTRAL ILLINOIS
  
CITY           SKY/WX    TMP DP  RH WIND       PRES   REMARKS
CARBONDALE     FAIR      50  31  48 NW6       30.22F                  
CAIRO*         FAIR      54  37  53 N5        30.21F                  
EFFINGHAM*     FAIR      48  31  51 NW9       30.22S                  
MARION         SUNNY     50  30  46 W9        30.22F                  
MT. VERNON     FAIR      50  30  46 VRB6      30.21F                  
CENTRALIA*     SUNNY     49  33  53 CALM      30.21F                  
SALEM*         FAIR      49  33  53 W8        30.21F                  
METROPOLIS*    FAIR      55  34  44 NW7       30.21F                  
$$

ILZ067-068-072-073-078-083-087-091-172100-
SOUTHEAST ILLINOIS
  
CITY           SKY/WX    TMP DP  RH WIND       PRES   REMARKS
LAWRENCEVILLE  FAIR      50  28  42 W9        30.19S                  
FLORA*         FAIR      50  29  45 NW8       30.21S                  
FAIRFIELD*     FAIR      50  28  43 CALM      30.19F                  
HARRISBURG*    FAIR      52  34  50 NW3       30.21F                  
ROBINSON*      FAIR      47  29  51 NW8       30.19F                  
CARMI*         FAIR      50  32  50 W9        30.20S                  
$$

ABBREVIATIONS USED IN REMARKS
   TC - TEMPERATURE IN CELSIUS
  WCI - WIND CHILL INDEX
   HX - HEAT INDEX
  VSB - VISIBILITY
$$